NW Arkansas Airport, AR

6:26 PM CDT on March 25, 2017 (GMT -0500)
Northwest Arkansas Regional

Weather History for KXNA - March, 2013

Change the Weather History Date:

Thursday, March 14, 2013

  Actual Average (KVBT) Record (KVBT)
Temperature  
Mean Temperature 50 °F -  
Max Temperature 70 °F 57 °F 80 °F (1967)
Min Temperature 30 °F 34 °F 12 °F (1948)
Degree Days  
Heating Degree Days 15    
Moisture  
Dew Point 32 °F    
Average Humidity 50    
Maximum Humidity 76    
Minimum Humidity 34    
Precipitation  
Precipitation 0.00 in - - ()
Sea Level Pressure  
Sea Level Pressure 30.22 in    
Wind  
Wind Speed 6 mph (SSW)    
Max Wind Speed 22 mph    
Max Gust Speed 30 mph    
Visibility 10 miles    
Events      
Averages and records for this station are not official NWS values.
T = Trace of Precipitation, MM = Missing Value Source: NWS Daily Summary

Daily Weather History Graph

Daily Weather History Graph

Search for Another Location

Airport or City:

Trip Planner

Search our weather history database for the weather conditions in past years. The results will help you decide how hot, cold, wet, or windy it might be!

Date:

Astronomy

Mar. 14, 2013 Rise Set
Actual Time 7:29 AM CDT 7:24 PM CDT
Civil Twilight 7:03 AM CDT 7:49 PM CDT
Nautical Twilight 6:33 AM CDT 8:19 PM CDT
Astronomical Twilight 6:03 AM CDT 8:49 PM CDT
Moon 8:49 AM CDT (3/14) 10:34 PM CDT (3/14)
Length of Visible Light 12h 46m
Length of Day
11h 54m
Waxing Crescent, 9% of the Moon is Illuminated
Mar 14
Waxing Crescent
Mar 19
First Quarter
Mar 27
Full
Apr 2
Last Quarter
Apr 10
New

Hourly Weather History & Observations

Time (CDT) Temp. Windchill Dew Point Humidity Pressure Visibility Wind Dir Wind Speed Gust Speed Precip Events Conditions
12:53 AM 36.0 °F 33.3 °F 19.9 °F 52% 30.35 in 10.0 mi SSE 3.5 mph - N/A   Clear
1:53 AM 35.1 °F - 21.9 °F 59% 30.33 in 10.0 mi Calm Calm - N/A   Clear
2:53 AM 35.1 °F 32.2 °F 21.0 °F 57% 30.32 in 10.0 mi SSE 3.5 mph - N/A   Clear
3:53 AM 34.0 °F 31.0 °F 21.9 °F 61% 30.30 in 10.0 mi SSE 3.5 mph - N/A   Clear
4:53 AM 33.1 °F - 23.0 °F 66% 30.28 in 10.0 mi Calm Calm - N/A   Clear
5:53 AM 30.9 °F - 24.1 °F 76% 30.29 in 10.0 mi Calm Calm - N/A   Clear
6:53 AM 33.1 °F 28.7 °F 21.9 °F 64% 30.29 in 10.0 mi South 4.6 mph - N/A   Clear
7:53 AM 36.0 °F 30.3 °F 21.9 °F 57% 30.30 in 10.0 mi South 6.9 mph - N/A   Clear
8:53 AM 44.1 °F 39.5 °F 26.1 °F 49% 30.29 in 10.0 mi SSW 8.1 mph - N/A   Clear
9:53 AM 52.0 °F - 30.0 °F 43% 30.27 in 10.0 mi SSW 13.8 mph - N/A   Clear
10:53 AM 57.0 °F - 28.9 °F 34% 30.26 in 10.0 mi SW 21.9 mph 29.9 mph N/A   Clear
11:53 AM 60.1 °F - 32.0 °F 35% 30.25 in 10.0 mi SSW 12.7 mph 26.5 mph N/A   Clear
12:53 PM 62.1 °F - 35.1 °F 37% 30.23 in 10.0 mi SSW 13.8 mph 29.9 mph N/A   Clear
1:53 PM 64.9 °F - 37.0 °F 36% 30.19 in 10.0 mi SSW 15.0 mph 23.0 mph N/A   Clear
2:53 PM 66.0 °F - 37.9 °F 36% 30.16 in 10.0 mi SW 13.8 mph 21.9 mph N/A   Clear
3:53 PM 68.0 °F - 39.0 °F 35% 30.15 in 10.0 mi SW 9.2 mph 20.7 mph N/A   Clear
4:53 PM 70.0 °F - 41.0 °F 35% 30.14 in 10.0 mi SSW 12.7 mph 20.7 mph N/A   Clear
5:53 PM 69.1 °F - 39.9 °F 35% 30.12 in 10.0 mi SW 17.3 mph - N/A   Clear
6:53 PM 66.0 °F - 39.9 °F 38% 30.12 in 10.0 mi SSW 9.2 mph - N/A   Clear
7:53 PM 61.0 °F - 39.9 °F 46% 30.13 in 10.0 mi SW 5.8 mph - N/A   Clear
8:53 PM 57.0 °F - 39.9 °F 53% 30.12 in 10.0 mi Calm Calm - N/A   Clear
9:53 PM 54.0 °F - 41.0 °F 62% 30.12 in 10.0 mi SSW 5.8 mph - N/A   Clear
10:53 PM 53.1 °F - 41.0 °F 64% 30.12 in 10.0 mi SSW 5.8 mph - N/A   Clear
11:53 PM 54.0 °F - 41.0 °F 62% 30.11 in 10.0 mi SSW 5.8 mph - N/A   Clear